Anzahl Datensätze: 286
min. Temperatur: 3.7 °C
max. Temperatur: 21.8 °C
max. Windgeschwindigkeit: 16.2 km/h
Niederschlagsumme: 0.0 mm
| Datum |
Zeit |
Temp °C |
Feuchte % |
Taupunkt °C |
Luftdruck hPa |
Wind km/h |
Windrichtung |
Strahlung w/m² |
Niederschlag mm |
|---|---|---|---|---|---|---|---|---|---|
| 27.04.2026 | 00:03 | 9.4 | 71 | 4.4 | 1021.6 | 0.0 | NO | 0 | 0.0 |
| 27.04.2026 | 00:08 | 9.3 | 72 | 4.5 | 1021.7 | 1.4 | NO | 0 | 0.0 |
| 27.04.2026 | 00:13 | 9.2 | 72 | 4.4 | 1021.7 | 0.0 | NO | 0 | 0.0 |
| 27.04.2026 | 00:18 | 9.2 | 72 | 4.4 | 1021.7 | 0.0 | NO | 0 | 0.0 |
| 27.04.2026 | 00:23 | 9.1 | 72 | 4.3 | 1021.8 | 0.0 | NO | 0 | 0.0 |
| 27.04.2026 | 00:29 | 8.9 | 73 | 4.3 | 1021.9 | 0.0 | NO | 0 | 0.0 |
| 27.04.2026 | 00:34 | 8.9 | 73 | 4.3 | 1021.9 | 0.0 | NO | 0 | 0.0 |
| 27.04.2026 | 00:39 | 8.8 | 73 | 4.2 | 1021.8 | 1.4 | NO | 0 | 0.0 |
| 27.04.2026 | 00:44 | 8.7 | 73 | 4.1 | 1021.8 | 0.0 | NO | 0 | 0.0 |
| 27.04.2026 | 00:49 | 8.6 | 73 | 4.0 | 1021.8 | 0.0 | NO | 0 | 0.0 |
| 27.04.2026 | 00:54 | 8.4 | 73 | 3.8 | 1021.9 | 0.0 | NO | 0 | 0.0 |
| 27.04.2026 | 00:59 | 8.3 | 73 | 3.7 | 1021.9 | 0.0 | NO | 0 | 0.0 |
| 27.04.2026 | 01:04 | 8.2 | 74 | 3.8 | 1021.9 | 0.0 | NO | 0 | 0.0 |
| 27.04.2026 | 01:09 | 8.1 | 74 | 3.7 | 1021.9 | 0.0 | NO | 0 | 0.0 |
| 27.04.2026 | 01:14 | 7.9 | 74 | 3.6 | 1021.9 | 0.0 | NO | 0 | 0.0 |
| 27.04.2026 | 01:19 | 7.9 | 74 | 3.6 | 1022.0 | 0.0 | NO | 0 | 0.0 |
| 27.04.2026 | 01:24 | 7.8 | 76 | 3.8 | 1022.0 | 0.0 | NO | 0 | 0.0 |
| 27.04.2026 | 01:29 | 7.6 | 77 | 3.8 | 1022.0 | 1.4 | NO | 0 | 0.0 |
| 27.04.2026 | 01:34 | 7.4 | 78 | 3.8 | 1022.1 | 0.0 | NO | 0 | 0.0 |
| 27.04.2026 | 01:39 | 7.2 | 78 | 3.6 | 1022.1 | 0.0 | NO | 0 | 0.0 |
| 27.04.2026 | 01:44 | 7.1 | 79 | 3.7 | 1022.1 | 0.0 | NO | 0 | 0.0 |
| 27.04.2026 | 01:49 | 6.9 | 79 | 3.5 | 1022.1 | 0.0 | NO | 0 | 0.0 |
| 27.04.2026 | 01:54 | 6.8 | 80 | 3.6 | 1022.0 | 0.0 | NO | 0 | 0.0 |
| 27.04.2026 | 01:59 | 6.8 | 80 | 3.6 | 1022.0 | 0.0 | NO | 0 | 0.0 |
| 27.04.2026 | 02:04 | 6.7 | 80 | 3.5 | 1022.0 | 0.0 | NO | 0 | 0.0 |
| 27.04.2026 | 02:09 | 6.7 | 79 | 3.3 | 1022.0 | 0.0 | NO | 0 | 0.0 |
| 27.04.2026 | 02:14 | 6.7 | 78 | 3.1 | 1021.9 | 0.0 | NO | 0 | 0.0 |
| 27.04.2026 | 02:19 | 6.7 | 78 | 3.1 | 1021.9 | 1.4 | NO | 0 | 0.0 |
| 27.04.2026 | 02:24 | 6.7 | 78 | 3.1 | 1021.9 | 0.0 | NO | 0 | 0.0 |
| 27.04.2026 | 02:29 | 6.7 | 78 | 3.1 | 1021.9 | 0.0 | NO | 0 | 0.0 |
| 27.04.2026 | 02:34 | 6.7 | 78 | 3.1 | 1021.8 | 0.0 | NO | 0 | 0.0 |
| 27.04.2026 | 02:39 | 6.6 | 78 | 3.0 | 1021.7 | 0.0 | NO | 0 | 0.0 |
| 27.04.2026 | 02:44 | 6.5 | 79 | 3.1 | 1021.8 | 0.0 | NO | 0 | 0.0 |
| 27.04.2026 | 02:50 | 6.4 | 78 | 2.8 | 1021.6 | 0.0 | NO | 0 | 0.0 |
| 27.04.2026 | 02:55 | 6.3 | 78 | 2.7 | 1021.5 | 1.4 | NO | 0 | 0.0 |
| 27.04.2026 | 03:00 | 6.3 | 78 | 2.7 | 1021.5 | 0.0 | NO | 0 | 0.0 |
| 27.04.2026 | 03:05 | 6.2 | 78 | 2.6 | 1021.5 | 0.0 | NO | 0 | 0.0 |
| 27.04.2026 | 03:10 | 6.1 | 78 | 2.6 | 1021.5 | 0.0 | NO | 0 | 0.0 |
| 27.04.2026 | 03:15 | 6.1 | 78 | 2.6 | 1021.5 | 0.0 | NO | 0 | 0.0 |
| 27.04.2026 | 03:20 | 6.1 | 78 | 2.6 | 1021.5 | 0.0 | NO | 0 | 0.0 |
| 27.04.2026 | 03:25 | 5.9 | 78 | 2.4 | 1021.5 | 0.0 | NO | 0 | 0.0 |
| 27.04.2026 | 03:30 | 5.9 | 78 | 2.4 | 1021.5 | 0.0 | NO | 0 | 0.0 |
| 27.04.2026 | 03:35 | 5.9 | 78 | 2.4 | 1021.5 | 0.0 | NO | 0 | 0.0 |
| 27.04.2026 | 03:40 | 5.8 | 78 | 2.3 | 1021.6 | 0.0 | NO | 0 | 0.0 |
| 27.04.2026 | 03:45 | 5.8 | 80 | 2.6 | 1021.6 | 0.0 | NO | 0 | 0.0 |
| 27.04.2026 | 03:50 | 5.6 | 79 | 2.2 | 1021.6 | 0.0 | NO | 0 | 0.0 |
| 27.04.2026 | 03:55 | 5.6 | 79 | 2.2 | 1021.5 | 0.0 | NO | 0 | 0.0 |
| 27.04.2026 | 04:00 | 5.5 | 79 | 2.1 | 1021.5 | 0.0 | NO | 0 | 0.0 |
| 27.04.2026 | 04:05 | 5.4 | 78 | 1.9 | 1021.4 | 0.0 | NO | 0 | 0.0 |
| 27.04.2026 | 04:10 | 5.4 | 78 | 1.9 | 1021.4 | 0.0 | NO | 0 | 0.0 |
| 27.04.2026 | 04:15 | 5.3 | 78 | 1.8 | 1021.4 | 0.0 | NO | 0 | 0.0 |
| 27.04.2026 | 04:20 | 5.3 | 79 | 2.0 | 1021.4 | 0.0 | NO | 0 | 0.0 |
| 27.04.2026 | 04:25 | 5.2 | 79 | 1.9 | 1021.4 | 0.0 | NO | 0 | 0.0 |
| 27.04.2026 | 04:30 | 5.1 | 79 | 1.8 | 1021.4 | 0.0 | NO | 0 | 0.0 |
| 27.04.2026 | 04:35 | 5.0 | 79 | 1.7 | 1021.4 | 0.0 | NO | 0 | 0.0 |
| 27.04.2026 | 04:40 | 4.9 | 80 | 1.7 | 1021.4 | 0.0 | NO | 0 | 0.0 |
| 27.04.2026 | 04:45 | 4.8 | 80 | 1.6 | 1021.4 | 0.0 | NO | 0 | 0.0 |
| 27.04.2026 | 04:50 | 4.8 | 80 | 1.6 | 1021.3 | 1.4 | NO | 0 | 0.0 |
| 27.04.2026 | 04:55 | 4.8 | 80 | 1.6 | 1021.3 | 0.0 | NO | 0 | 0.0 |
| 27.04.2026 | 05:00 | 4.7 | 80 | 1.5 | 1021.3 | 0.0 | NO | 0 | 0.0 |
| 27.04.2026 | 05:05 | 4.7 | 80 | 1.5 | 1021.3 | 0.0 | NO | 0 | 0.0 |
| 27.04.2026 | 05:10 | 4.6 | 80 | 1.4 | 1021.4 | 0.0 | NO | 0 | 0.0 |
| 27.04.2026 | 05:15 | 4.6 | 80 | 1.4 | 1021.4 | 0.0 | NO | 0 | 0.0 |
| 27.04.2026 | 05:20 | 4.5 | 81 | 1.5 | 1021.5 | 0.0 | NO | 0 | 0.0 |
| 27.04.2026 | 05:25 | 4.4 | 81 | 1.4 | 1021.5 | 0.0 | NO | 0 | 0.0 |
| 27.04.2026 | 05:30 | 4.4 | 81 | 1.4 | 1021.4 | 0.0 | NO | 0 | 0.0 |
| 27.04.2026 | 05:35 | 4.3 | 81 | 1.3 | 1021.3 | 0.0 | NO | 0 | 0.0 |
| 27.04.2026 | 05:40 | 4.3 | 81 | 1.3 | 1021.3 | 0.0 | NO | 0 | 0.0 |
| 27.04.2026 | 05:45 | 4.3 | 81 | 1.3 | 1021.3 | 0.0 | NO | 0 | 0.0 |
| 27.04.2026 | 05:51 | 4.2 | 81 | 1.2 | 1021.3 | 0.0 | NO | 0 | 0.0 |
| 27.04.2026 | 05:56 | 4.2 | 81 | 1.2 | 1021.3 | 1.4 | NO | 0 | 0.0 |
| 27.04.2026 | 06:01 | 4.1 | 82 | 1.3 | 1021.3 | 0.0 | NO | 0 | 0.0 |
| 27.04.2026 | 06:06 | 4.1 | 82 | 1.3 | 1021.3 | 0.0 | NO | 0 | 0.0 |
| 27.04.2026 | 06:11 | 4.0 | 82 | 1.2 | 1021.3 | 1.4 | NO | 0 | 0.0 |
| 27.04.2026 | 06:16 | 3.9 | 82 | 1.1 | 1021.3 | 0.0 | NO | 0 | 0.0 |
| 27.04.2026 | 06:21 | 3.8 | 82 | 1.0 | 1021.3 | 0.0 | NO | 0 | 0.0 |
| 27.04.2026 | 06:26 | 3.8 | 82 | 1.0 | 1021.3 | 0.0 | NO | 5 | 0.0 |
| 27.04.2026 | 06:31 | 3.8 | 82 | 1.0 | 1021.3 | 0.0 | NO | 7 | 0.0 |
| 27.04.2026 | 06:36 | 3.8 | 82 | 1.0 | 1021.3 | 0.0 | NO | 9 | 0.0 |
| 27.04.2026 | 06:41 | 3.8 | 83 | 1.2 | 1021.4 | 0.0 | NO | 11 | 0.0 |
| 27.04.2026 | 06:46 | 3.8 | 83 | 1.2 | 1021.4 | 1.4 | NO | 12 | 0.0 |
| 27.04.2026 | 06:51 | 3.7 | 83 | 1.1 | 1021.3 | 0.0 | NNO | 12 | 0.0 |
| 27.04.2026 | 06:56 | 3.7 | 83 | 1.1 | 1021.4 | 0.0 | NNO | 12 | 0.0 |
| 27.04.2026 | 07:01 | 3.7 | 83 | 1.1 | 1021.5 | 0.0 | NNO | 14 | 0.0 |
| 27.04.2026 | 07:06 | 3.7 | 83 | 1.1 | 1021.5 | 1.4 | NNO | 16 | 0.0 |
| 27.04.2026 | 07:11 | 3.7 | 83 | 1.1 | 1021.4 | 0.0 | NNO | 18 | 0.0 |
| 27.04.2026 | 07:16 | 3.8 | 83 | 1.2 | 1021.4 | 0.0 | NNO | 19 | 0.0 |
| 27.04.2026 | 07:21 | 3.8 | 83 | 1.2 | 1021.4 | 0.0 | NNO | 19 | 0.0 |
| 27.04.2026 | 07:26 | 3.8 | 83 | 1.2 | 1021.4 | 0.0 | NNO | 21 | 0.0 |
| 27.04.2026 | 07:31 | 3.9 | 83 | 1.3 | 1021.4 | 1.4 | NNO | 21 | 0.0 |
| 27.04.2026 | 07:36 | 3.9 | 83 | 1.3 | 1021.5 | 0.0 | NNO | 23 | 0.0 |
| 27.04.2026 | 07:41 | 3.9 | 83 | 1.3 | 1021.6 | 0.0 | NNO | 25 | 0.0 |
| 27.04.2026 | 07:46 | 4.0 | 83 | 1.4 | 1021.6 | 1.4 | NNO | 26 | 0.0 |
| 27.04.2026 | 07:51 | 4.1 | 83 | 1.5 | 1021.6 | 0.0 | NNO | 28 | 0.0 |
| 27.04.2026 | 07:56 | 4.2 | 83 | 1.6 | 1021.7 | 0.0 | NNO | 32 | 0.0 |
| 27.04.2026 | 08:01 | 4.4 | 82 | 1.6 | 1021.7 | 0.0 | NNO | 33 | 0.0 |
| 27.04.2026 | 08:06 | 4.6 | 82 | 1.8 | 1021.7 | 0.0 | NNO | 35 | 0.0 |
| 27.04.2026 | 08:11 | 4.8 | 81 | 1.8 | 1021.8 | 1.4 | O | 37 | 0.0 |
| 27.04.2026 | 08:16 | 5.1 | 80 | 1.9 | 1021.8 | 0.0 | O | 37 | 0.0 |
| 27.04.2026 | 08:21 | 5.4 | 79 | 2.1 | 1021.9 | 0.0 | O | 37 | 0.0 |
| 27.04.2026 | 08:26 | 5.7 | 78 | 2.2 | 1021.8 | 0.0 | O | 39 | 0.0 |
| 27.04.2026 | 08:31 | 5.9 | 77 | 2.2 | 1021.7 | 0.0 | O | 44 | 0.0 |
| 27.04.2026 | 08:36 | 6.2 | 77 | 2.5 | 1021.7 | 0.0 | OSO | 47 | 0.0 |
| 27.04.2026 | 08:41 | 6.4 | 76 | 2.5 | 1021.7 | 0.0 | OSO | 49 | 0.0 |
| 27.04.2026 | 08:46 | 6.8 | 76 | 2.9 | 1021.7 | 0.0 | OSO | 53 | 0.0 |
| 27.04.2026 | 08:51 | 7.1 | 75 | 3.0 | 1021.6 | 0.0 | O | 56 | 0.0 |
| 27.04.2026 | 08:57 | 7.4 | 74 | 3.1 | 1021.5 | 0.0 | N | 62 | 0.0 |
| 27.04.2026 | 09:02 | 7.8 | 73 | 3.3 | 1021.6 | 3.2 | N | 65 | 0.0 |
| 27.04.2026 | 09:07 | 8.2 | 72 | 3.5 | 1021.5 | 0.0 | N | 67 | 0.0 |
| 27.04.2026 | 09:12 | 8.7 | 71 | 3.7 | 1021.5 | 1.4 | NO | 69 | 0.0 |
| 27.04.2026 | 09:17 | 9.1 | 69 | 3.7 | 1021.4 | 1.4 | N | 72 | 0.0 |
| 27.04.2026 | 09:22 | 9.5 | 67 | 3.7 | 1021.3 | 0.0 | NO | 77 | 0.0 |
| 27.04.2026 | 09:27 | 9.9 | 65 | 3.6 | 1021.3 | 4.7 | N | 90 | 0.0 |
| 27.04.2026 | 09:32 | 10.3 | 63 | 3.6 | 1021.3 | 1.4 | NO | 186 | 0.0 |
| 27.04.2026 | 09:37 | 10.7 | 61 | 3.5 | 1021.3 | 0.0 | O | 422 | 0.0 |
| 27.04.2026 | 09:42 | 11.2 | 60 | 3.7 | 1021.3 | 1.4 | O | 496 | 0.0 |
| 27.04.2026 | 09:47 | 11.8 | 58 | 3.8 | 1021.3 | 0.0 | NNO | 517 | 0.0 |
| 27.04.2026 | 09:52 | 12.4 | 56 | 3.9 | 1021.3 | 0.0 | ONO | 522 | 0.0 |
| 27.04.2026 | 09:57 | 13.0 | 54 | 3.9 | 1021.3 | 6.5 | N | 452 | 0.0 |
| 27.04.2026 | 10:02 | 13.4 | 52 | 3.7 | 1021.3 | 1.4 | N | 522 | 0.0 |
| 27.04.2026 | 10:07 | 13.7 | 51 | 3.7 | 1021.4 | 6.5 | NNW | 448 | 0.0 |
| 27.04.2026 | 10:12 | 13.9 | 50 | 3.6 | 1021.3 | 1.4 | WNW | 457 | 0.0 |
| 27.04.2026 | 10:17 | 14.1 | 48 | 3.3 | 1021.3 | 6.5 | NNO | 485 | 0.0 |
| 27.04.2026 | 10:22 | 14.1 | 49 | 3.5 | 1021.3 | 0.0 | N | 427 | 0.0 |
| 27.04.2026 | 10:27 | 14.2 | 48 | 3.3 | 1021.2 | 0.0 | N | 399 | 0.0 |
| 27.04.2026 | 10:32 | 14.4 | 49 | 3.8 | 1021.2 | 0.0 | N | 503 | 0.0 |
| 27.04.2026 | 10:37 | 14.7 | 48 | 3.8 | 1021.2 | 0.0 | N | 417 | 0.0 |
| 27.04.2026 | 10:42 | 14.8 | 48 | 3.9 | 1021.1 | 0.0 | NNO | 350 | 0.0 |
| 27.04.2026 | 10:47 | 14.9 | 48 | 4.0 | 1021.1 | 0.0 | NNW | 489 | 0.0 |
| 27.04.2026 | 10:52 | 15.1 | 48 | 4.2 | 1021.1 | 0.0 | NNW | 552 | 0.0 |
| 27.04.2026 | 10:57 | 15.3 | 47 | 4.1 | 1021.0 | 0.0 | SSO | 643 | 0.0 |
| 27.04.2026 | 11:02 | 15.8 | 45 | 3.9 | 1021.0 | 3.2 | N | 582 | 0.0 |
| 27.04.2026 | 11:07 | 15.7 | 46 | 4.1 | 1020.9 | 1.4 | WNW | 698 | 0.0 |
| 27.04.2026 | 11:12 | 16.1 | 43 | 3.5 | 1020.8 | 3.2 | NW | 640 | 0.0 |
| 27.04.2026 | 11:17 | 16.2 | 42 | 3.3 | 1020.8 | 3.2 | N | 429 | 0.0 |
| 27.04.2026 | 11:22 | 16.3 | 42 | 3.4 | 1020.7 | 6.5 | N | 432 | 0.0 |
| 27.04.2026 | 11:27 | 16.4 | 40 | 2.8 | 1020.8 | 3.2 | NW | 427 | 0.0 |
| 27.04.2026 | 11:32 | 16.5 | 40 | 2.9 | 1020.9 | 4.7 | NNW | 452 | 0.0 |
| 27.04.2026 | 11:38 | 16.6 | 38 | 2.2 | 1020.9 | 1.4 | NNW | 471 | 0.0 |
| 27.04.2026 | 11:43 | 16.6 | 38 | 2.2 | 1021.0 | 3.2 | NW | 367 | 0.0 |
| 27.04.2026 | 11:48 | 16.6 | 38 | 2.2 | 1021.0 | 4.7 | NNW | 441 | 0.0 |
| 27.04.2026 | 11:53 | 16.7 | 38 | 2.3 | 1020.8 | 1.4 | NNW | 508 | 0.0 |
| 27.04.2026 | 11:58 | 16.7 | 40 | 3.0 | 1020.8 | 1.4 | N | 619 | 0.0 |
| 27.04.2026 | 12:03 | 17.1 | 40 | 3.4 | 1020.7 | 1.4 | WSW | 541 | 0.0 |
| 27.04.2026 | 12:08 | 17.5 | 38 | 3.0 | 1020.8 | 1.4 | NO | 533 | 0.0 |
| 27.04.2026 | 12:13 | 17.4 | 37 | 2.6 | 1020.7 | 1.4 | WSW | 591 | 0.0 |
| 27.04.2026 | 12:18 | 17.6 | 39 | 3.5 | 1020.6 | 3.2 | NW | 659 | 0.0 |
| 27.04.2026 | 12:23 | 17.8 | 36 | 2.5 | 1020.6 | 11.2 | NNO | 759 | 0.0 |
| 27.04.2026 | 12:28 | 17.8 | 35 | 2.1 | 1020.5 | 3.2 | WNW | 728 | 0.0 |
| 27.04.2026 | 12:33 | 17.8 | 36 | 2.5 | 1020.5 | 3.2 | S | 751 | 0.0 |
| 27.04.2026 | 12:38 | 18.3 | 34 | 2.2 | 1020.5 | 9.7 | N | 664 | 0.0 |
| 27.04.2026 | 12:43 | 18.1 | 30 | 0.2 | 1020.3 | 6.5 | N | 649 | 0.0 |
| 27.04.2026 | 12:48 | 17.9 | 35 | 2.2 | 1020.3 | 3.2 | WSW | 700 | 0.0 |
| 27.04.2026 | 12:53 | 18.1 | 35 | 2.4 | 1020.2 | 1.4 | ONO | 684 | 0.0 |
| 27.04.2026 | 12:58 | 18.3 | 34 | 2.2 | 1020.2 | 4.7 | N | 638 | 0.0 |
| 27.04.2026 | 13:03 | 18.4 | 33 | 1.8 | 1020.2 | 7.9 | N | 640 | 0.0 |
| 27.04.2026 | 13:08 | 18.4 | 35 | 2.7 | 1020.2 | 1.4 | NNO | 601 | 0.0 |
| 27.04.2026 | 13:13 | 18.4 | 33 | 1.8 | 1020.1 | 1.4 | S | 608 | 0.0 |
| 27.04.2026 | 13:18 | 18.6 | 32 | 1.6 | 1020.0 | 0.0 | N | 575 | 0.0 |
| 27.04.2026 | 13:23 | 18.8 | 31 | 1.3 | 1020.0 | 6.5 | N | 533 | 0.0 |
| 27.04.2026 | 13:28 | 19.1 | 30 | 1.1 | 1020.0 | 4.7 | NW | 563 | 0.0 |
| 27.04.2026 | 13:33 | 19.1 | 30 | 1.1 | 1019.9 | 7.9 | N | 547 | 0.0 |
| 27.04.2026 | 13:38 | 18.8 | 31 | 1.3 | 1019.9 | 4.7 | N | 490 | 0.0 |
| 27.04.2026 | 13:43 | 18.9 | 30 | 0.9 | 1019.8 | 7.9 | NNO | 612 | 0.0 |
| 27.04.2026 | 13:48 | 19.0 | 30 | 1.0 | 1019.8 | 7.9 | N | 570 | 0.0 |
| 27.04.2026 | 13:53 | 18.9 | 30 | 0.9 | 1019.8 | 6.5 | N | 480 | 0.0 |
| 27.04.2026 | 13:58 | 18.8 | 32 | 1.8 | 1019.7 | 3.2 | NNW | 480 | 0.0 |
| 27.04.2026 | 14:03 | 19.1 | 32 | 2.0 | 1019.7 | 1.4 | W | 545 | 0.0 |
| 27.04.2026 | 14:08 | 19.3 | 29 | 0.8 | 1019.7 | 7.9 | NNW | 628 | 0.0 |
| 27.04.2026 | 14:14 | 19.3 | 29 | 0.8 | 1019.6 | 4.7 | N | 657 | 0.0 |
| 27.04.2026 | 14:19 | 19.4 | 28 | 0.4 | 1019.6 | 3.2 | NW | 657 | 0.0 |
| 27.04.2026 | 14:24 | 19.7 | 27 | 0.2 | 1019.6 | 3.2 | NNW | 594 | 0.0 |
| 27.04.2026 | 14:29 | 19.9 | 28 | 0.8 | 1019.6 | 7.9 | N | 599 | 0.0 |
| 27.04.2026 | 14:34 | 19.7 | 29 | 1.2 | 1019.6 | 6.5 | NNW | 496 | 0.0 |
| 27.04.2026 | 14:39 | 19.7 | 29 | 1.2 | 1019.4 | 6.5 | N | 496 | 0.0 |
| 27.04.2026 | 14:44 | 19.6 | 26 | -0.4 | 1019.4 | 4.7 | N | 570 | 0.0 |
| 27.04.2026 | 14:49 | 19.8 | 27 | 0.3 | 1019.3 | 1.4 | ONO | 564 | 0.0 |
| 27.04.2026 | 14:54 | 19.9 | 29 | 1.3 | 1019.3 | 4.7 | N | 554 | 0.0 |
| 27.04.2026 | 14:59 | 20.0 | 29 | 1.4 | 1019.2 | 7.9 | NNW | 506 | 0.0 |
| 27.04.2026 | 15:04 | 20.1 | 29 | 1.5 | 1019.3 | 6.5 | N | 577 | 0.0 |
| 27.04.2026 | 15:09 | 20.1 | 29 | 1.5 | 1019.2 | 0.0 | WNW | 603 | 0.0 |
| 27.04.2026 | 15:14 | 20.2 | 28 | 1.1 | 1019.2 | 4.7 | NNW | 622 | 0.0 |
| 27.04.2026 | 15:19 | 20.2 | 28 | 1.1 | 1019.2 | 7.9 | NNO | 563 | 0.0 |
| 27.04.2026 | 15:24 | 20.3 | 30 | 2.2 | 1019.2 | 3.2 | NNW | 587 | 0.0 |
| 27.04.2026 | 15:29 | 20.4 | 31 | 2.7 | 1019.1 | 4.7 | N | 538 | 0.0 |
| 27.04.2026 | 15:34 | 20.3 | 31 | 2.6 | 1019.1 | 3.2 | NW | 554 | 0.0 |
| 27.04.2026 | 15:39 | 20.4 | 31 | 2.7 | 1019.0 | 3.2 | SW | 517 | 0.0 |
| 27.04.2026 | 15:44 | 20.7 | 30 | 2.5 | 1019.0 | 13.0 | N | 541 | 0.0 |
| 27.04.2026 | 15:49 | 20.7 | 31 | 3.0 | 1018.8 | 6.5 | N | 550 | 0.0 |
| 27.04.2026 | 15:54 | 20.7 | 30 | 2.5 | 1018.8 | 3.2 | NNW | 515 | 0.0 |
| 27.04.2026 | 15:59 | 20.8 | 31 | 3.0 | 1018.7 | 0.0 | O | 513 | 0.0 |
| 27.04.2026 | 16:04 | 21.1 | 29 | 2.4 | 1018.7 | 7.9 | N | 529 | 0.0 |
| 27.04.2026 | 16:09 | 21.2 | 30 | 2.9 | 1018.6 | 3.2 | SW | 457 | 0.0 |
| 27.04.2026 | 16:14 | 21.1 | 30 | 2.8 | 1018.5 | 7.9 | N | 489 | 0.0 |
| 27.04.2026 | 16:19 | 20.8 | 29 | 2.1 | 1018.5 | 1.4 | NNW | 541 | 0.0 |
| 27.04.2026 | 16:24 | 20.9 | 30 | 2.7 | 1018.5 | 1.4 | N | 462 | 0.0 |
| 27.04.2026 | 16:29 | 21.2 | 30 | 2.9 | 1018.5 | 1.4 | SSW | 438 | 0.0 |
| 27.04.2026 | 16:34 | 21.4 | 29 | 2.6 | 1018.4 | 0.0 | SW | 454 | 0.0 |
| 27.04.2026 | 16:39 | 21.4 | 29 | 2.6 | 1018.3 | 13.0 | N | 478 | 0.0 |
| 27.04.2026 | 16:44 | 20.8 | 29 | 2.1 | 1018.3 | 4.7 | NNO | 483 | 0.0 |
| 27.04.2026 | 16:50 | 20.9 | 30 | 2.7 | 1018.2 | 6.5 | NW | 371 | 0.0 |
| 27.04.2026 | 16:55 | 20.9 | 30 | 2.7 | 1018.2 | 6.5 | SO | 327 | 0.0 |
| 27.04.2026 | 17:00 | 20.8 | 30 | 2.6 | 1018.1 | 4.7 | NNW | 334 | 0.0 |
| 27.04.2026 | 17:05 | 20.9 | 30 | 2.7 | 1018.1 | 1.4 | N | 306 | 0.0 |
| 27.04.2026 | 17:10 | 21.3 | 29 | 2.5 | 1018.0 | 0.0 | S | 366 | 0.0 |
| 27.04.2026 | 17:15 | 21.6 | 29 | 2.8 | 1018.0 | 0.0 | SSO | 355 | 0.0 |
| 27.04.2026 | 17:20 | 21.8 | 30 | 3.5 | 1018.0 | 4.7 | OSO | 334 | 0.0 |
| 27.04.2026 | 17:25 | 21.6 | 30 | 3.3 | 1017.9 | 4.7 | NW | 318 | 0.0 |
| 27.04.2026 | 17:30 | 21.3 | 30 | 3.0 | 1017.8 | 1.4 | SSO | 279 | 0.0 |
| 27.04.2026 | 17:35 | 21.3 | 30 | 3.0 | 1017.8 | 3.2 | NNW | 199 | 0.0 |
| 27.04.2026 | 17:40 | 21.1 | 31 | 3.3 | 1017.8 | 0.0 | S | 246 | 0.0 |
| 27.04.2026 | 17:45 | 20.9 | 31 | 3.1 | 1017.7 | 1.4 | NW | 257 | 0.0 |
| 27.04.2026 | 17:50 | 20.9 | 31 | 3.1 | 1017.7 | 0.0 | OSO | 223 | 0.0 |
| 27.04.2026 | 17:55 | 21.0 | 31 | 3.2 | 1017.6 | 3.2 | OSO | 179 | 0.0 |
| 27.04.2026 | 18:00 | 20.8 | 31 | 3.0 | 1017.7 | 4.7 | N | 199 | 0.0 |
| 27.04.2026 | 18:05 | 20.9 | 31 | 3.1 | 1017.7 | 3.2 | SO | 186 | 0.0 |
| 27.04.2026 | 18:10 | 20.9 | 30 | 2.7 | 1017.6 | 4.7 | NW | 199 | 0.0 |
| 27.04.2026 | 18:15 | 20.8 | 31 | 3.0 | 1017.6 | 4.7 | NNW | 167 | 0.0 |
| 27.04.2026 | 18:20 | 20.8 | 30 | 2.6 | 1017.5 | 3.2 | NNW | 160 | 0.0 |
| 27.04.2026 | 18:25 | 20.7 | 30 | 2.5 | 1017.5 | 4.7 | N | 160 | 0.0 |
| 27.04.2026 | 18:30 | 20.6 | 29 | 1.9 | 1017.5 | 3.2 | NNW | 149 | 0.0 |
| 27.04.2026 | 18:35 | 20.4 | 29 | 1.8 | 1017.5 | 1.4 | NNW | 158 | 0.0 |
| 27.04.2026 | 18:40 | 20.3 | 29 | 1.7 | 1017.4 | 4.7 | N | 134 | 0.0 |
| 27.04.2026 | 18:45 | 20.2 | 29 | 1.6 | 1017.4 | 6.5 | NNW | 118 | 0.0 |
| 27.04.2026 | 18:50 | 20.0 | 30 | 1.9 | 1017.4 | 0.0 | NNW | 109 | 0.0 |
| 27.04.2026 | 18:55 | 19.9 | 30 | 1.8 | 1017.4 | 3.2 | N | 104 | 0.0 |
| 27.04.2026 | 19:00 | 19.8 | 31 | 2.2 | 1017.4 | 0.0 | N | 98 | 0.0 |
| 27.04.2026 | 19:05 | 19.8 | 31 | 2.2 | 1017.3 | 0.0 | N | 90 | 0.0 |
| 27.04.2026 | 19:10 | 19.9 | 33 | 3.1 | 1017.3 | 1.4 | N | 84 | 0.0 |
| 27.04.2026 | 19:15 | 19.8 | 35 | 3.9 | 1017.3 | 1.4 | N | 79 | 0.0 |
| 27.04.2026 | 19:20 | 19.6 | 37 | 4.5 | 1017.3 | 1.4 | N | 72 | 0.0 |
| 27.04.2026 | 19:25 | 19.3 | 38 | 4.6 | 1017.3 | 1.4 | N | 63 | 0.0 |
| 27.04.2026 | 19:31 | 19.2 | 40 | 5.3 | 1017.3 | 1.4 | N | 60 | 0.0 |
| 27.04.2026 | 19:36 | 18.9 | 41 | 5.4 | 1017.3 | 1.4 | N | 58 | 0.0 |
| 27.04.2026 | 19:41 | 18.7 | 42 | 5.5 | 1017.3 | 1.4 | N | 54 | 0.0 |
| 27.04.2026 | 19:46 | 18.5 | 43 | 5.7 | 1017.2 | 0.0 | N | 51 | 0.0 |
| 27.04.2026 | 19:51 | 18.3 | 43 | 5.5 | 1017.1 | 1.4 | N | 47 | 0.0 |
| 27.04.2026 | 19:56 | 18.0 | 44 | 5.6 | 1017.1 | 1.4 | N | 46 | 0.0 |
| 27.04.2026 | 20:01 | 17.7 | 44 | 5.3 | 1017.1 | 1.4 | N | 40 | 0.0 |
| 27.04.2026 | 20:06 | 17.5 | 45 | 5.4 | 1017.1 | 0.0 | NNW | 33 | 0.0 |
| 27.04.2026 | 20:11 | 17.2 | 47 | 5.8 | 1017.1 | 1.4 | NW | 25 | 0.0 |
| 27.04.2026 | 20:16 | 16.9 | 47 | 5.5 | 1017.1 | 0.0 | NW | 19 | 0.0 |
| 27.04.2026 | 20:21 | 16.7 | 49 | 5.9 | 1017.1 | 0.0 | W | 16 | 0.0 |
| 27.04.2026 | 20:26 | 16.4 | 51 | 6.2 | 1017.0 | 0.0 | W | 12 | 0.0 |
| 27.04.2026 | 20:31 | 16.2 | 49 | 5.5 | 1017.0 | 1.4 | N | 9 | 0.0 |
| 27.04.2026 | 20:36 | 15.9 | 51 | 5.8 | 1017.1 | 0.0 | WSW | 5 | 0.0 |
| 27.04.2026 | 20:41 | 15.7 | 50 | 5.3 | 1017.1 | 3.2 | N | 0 | 0.0 |
| 27.04.2026 | 20:46 | 15.4 | 51 | 5.3 | 1017.2 | 3.2 | NNW | 0 | 0.0 |
| 27.04.2026 | 20:51 | 15.2 | 52 | 5.4 | 1017.1 | 0.0 | NNW | 0 | 0.0 |
| 27.04.2026 | 20:56 | 15.1 | 51 | 5.0 | 1017.2 | 0.0 | NNW | 0 | 0.0 |
| 27.04.2026 | 21:01 | 14.8 | 52 | 5.0 | 1017.2 | 1.4 | N | 0 | 0.0 |
| 27.04.2026 | 21:06 | 14.6 | 53 | 5.1 | 1017.2 | 3.2 | N | 0 | 0.0 |
| 27.04.2026 | 21:11 | 14.3 | 53 | 4.8 | 1017.2 | 3.2 | N | 0 | 0.0 |
| 27.04.2026 | 21:16 | 14.2 | 54 | 5.0 | 1017.2 | 0.0 | NNW | 0 | 0.0 |
| 27.04.2026 | 21:21 | 14.0 | 55 | 5.1 | 1017.2 | 0.0 | NNW | 0 | 0.0 |
| 27.04.2026 | 21:26 | 13.8 | 54 | 4.7 | 1017.2 | 0.0 | NNW | 0 | 0.0 |
| 27.04.2026 | 21:31 | 13.7 | 55 | 4.8 | 1017.2 | 1.4 | NNW | 0 | 0.0 |
| 27.04.2026 | 21:36 | 13.6 | 55 | 4.7 | 1017.2 | 1.4 | NNW | 0 | 0.0 |
| 27.04.2026 | 21:41 | 13.4 | 56 | 4.8 | 1017.2 | 0.0 | NNW | 0 | 0.0 |
| 27.04.2026 | 21:46 | 13.3 | 57 | 5.0 | 1017.2 | 1.4 | NNW | 0 | 0.0 |
| 27.04.2026 | 21:51 | 13.2 | 56 | 4.6 | 1017.2 | 1.4 | NNW | 0 | 0.0 |
| 27.04.2026 | 21:56 | 13.1 | 58 | 5.0 | 1017.2 | 0.0 | NNO | 0 | 0.0 |
| 27.04.2026 | 22:01 | 13.1 | 59 | 5.3 | 1017.2 | 0.0 | NNO | 0 | 0.0 |
| 27.04.2026 | 22:06 | 12.9 | 59 | 5.1 | 1017.1 | 0.0 | NNO | 0 | 0.0 |
| 27.04.2026 | 22:11 | 12.9 | 59 | 5.1 | 1017.2 | 1.4 | NNO | 0 | 0.0 |
| 27.04.2026 | 22:17 | 12.8 | 60 | 5.2 | 1017.2 | 1.4 | N | 0 | 0.0 |
| 27.04.2026 | 22:22 | 12.7 | 60 | 5.1 | 1017.2 | 0.0 | N | 0 | 0.0 |
| 27.04.2026 | 22:27 | 12.7 | 60 | 5.1 | 1017.2 | 0.0 | NNO | 0 | 0.0 |
| 27.04.2026 | 22:32 | 12.6 | 60 | 5.0 | 1017.2 | 0.0 | NO | 0 | 0.0 |
| 27.04.2026 | 22:37 | 12.6 | 60 | 5.0 | 1017.2 | 0.0 | NO | 0 | 0.0 |
| 27.04.2026 | 22:42 | 12.6 | 61 | 5.3 | 1017.2 | 0.0 | NO | 0 | 0.0 |
| 27.04.2026 | 22:47 | 12.4 | 61 | 5.1 | 1017.2 | 0.0 | NNO | 0 | 0.0 |
| 27.04.2026 | 22:52 | 12.3 | 61 | 5.0 | 1017.2 | 0.0 | NO | 0 | 0.0 |
| 27.04.2026 | 22:57 | 12.3 | 62 | 5.2 | 1017.2 | 0.0 | NO | 0 | 0.0 |
| 27.04.2026 | 23:02 | 12.3 | 62 | 5.2 | 1017.2 | 0.0 | NO | 0 | 0.0 |
| 27.04.2026 | 23:07 | 12.2 | 63 | 5.4 | 1017.1 | 0.0 | NO | 0 | 0.0 |
| 27.04.2026 | 23:12 | 12.2 | 62 | 5.1 | 1017.1 | 0.0 | ONO | 0 | 0.0 |
| 27.04.2026 | 23:17 | 12.1 | 63 | 5.3 | 1017.1 | 0.0 | ONO | 0 | 0.0 |
| 27.04.2026 | 23:22 | 11.9 | 66 | 5.7 | 1017.1 | 0.0 | O | 0 | 0.0 |
| 27.04.2026 | 23:27 | 11.7 | 67 | 5.8 | 1017.1 | 0.0 | O | 0 | 0.0 |
| 27.04.2026 | 23:32 | 11.5 | 66 | 5.4 | 1017.2 | 0.0 | O | 0 | 0.0 |
| 27.04.2026 | 23:37 | 11.3 | 68 | 5.6 | 1017.1 | 1.4 | O | 0 | 0.0 |
| 27.04.2026 | 23:42 | 11.2 | 69 | 5.7 | 1017.1 | 1.4 | O | 0 | 0.0 |
| 27.04.2026 | 23:47 | 11.1 | 69 | 5.6 | 1017.2 | 0.0 | O | 0 | 0.0 |
| 27.04.2026 | 23:52 | 10.9 | 68 | 5.2 | 1017.2 | 0.0 | O | 0 | 0.0 |
| 27.04.2026 | 23:57 | 10.9 | 68 | 5.2 | 1017.2 | 0.0 | O | 0 | 0.0 |